When you browse on this site, cookies collect data to enhance your experience and personalize the content and advertising you see.
Visit our Privacy Policy to learn more. By continuing to use the site, you agree to this use of cookies and data.
  • En España
  • Lista de países
  • Para 7 días
  • Temperatura del agua
  • Mapa Satelital
  • El tiempo en el mapa
  • Informadores
  • user-avatar
    Iniciar sesión

    Tiempo cada hora Bolshaya Dubrovka

    Hoy, 17 Julio, Miércoles

    Tiempo Temperatura Precipitaciones Viento Presión Humedad
    00:00 +11°C° 0 mm 1 mps 738 mmHg 90%
    01:00 +11°C° 0 mm 1 mps 738 mmHg 91%
    02:00 +11°C° 0 mm 1 mps 738 mmHg 92%
    03:00 +12°C° 0 mm 1 mps 738 mmHg 91%
    04:00 +12°C° 0 mm 2 mps 738 mmHg 90%
    05:00 +13°C° 0 mm 2 mps 738 mmHg 89%
    06:00 +13°C° 0.1 mm 2 mps 738 mmHg 88%
    07:00 +14°C° 0.1 mm 1 mps 738 mmHg 86%
    08:00 +14°C° 0 mm 0 mps 738 mmHg 84%
    09:00 +15°C° 0.2 mm 1 mps 738 mmHg 83%
    10:00 +16°C° 0.2 mm 1 mps 738 mmHg 81%
    11:00 +17°C° 0.2 mm 2 mps 738 mmHg 80%
    12:00 +18°C° 0.2 mm 2 mps 737 mmHg 77%
    13:00 +18°C° 0.2 mm 2 mps 737 mmHg 73%
    14:00 +19°C° 0.2 mm 2 mps 737 mmHg 70%
    15:00 +19°C° 0.1 mm 2 mps 737 mmHg 71%
    16:00 +20°C° 0.1 mm 1 mps 737 mmHg 73%
    17:00 +20°C° 0.1 mm 1 mps 737 mmHg 75%
    18:00 +19°C° 0.2 mm 1 mps 737 mmHg 78%
    19:00 +16°C° 0.2 mm 1 mps 736 mmHg 81%
    20:00 +15°C° 0.2 mm 1 mps 736 mmHg 84%
    21:00 +15°C° 0.1 mm 1 mps 736 mmHg 85%
    22:00 +15°C° 0.1 mm 1 mps 736 mmHg 85%
    23:00 +15°C° 0.1 mm 1 mps 736 mmHg 85%

    Mañana, 18 Julio, Jueves

    Tiempo Temperatura Precipitaciones Viento Presión Humedad
    00:00 +15°C° 0.2 mm 1 mps 736 mmHg 87%
    01:00 +14°C° 0.2 mm 1 mps 736 mmHg 89%
    02:00 +14°C° 0.2 mm 2 mps 736 mmHg 91%
    03:00 +14°C° 0.2 mm 2 mps 736 mmHg 93%
    04:00 +14°C° 0.2 mm 1 mps 736 mmHg 94%
    05:00 +14°C° 0.2 mm 1 mps 736 mmHg 95%
    06:00 +14°C° 0.5 mm 1 mps 736 mmHg 95%
    07:00 +15°C° 0.5 mm 1 mps 736 mmHg 95%
    08:00 +15°C° 0.5 mm 2 mps 736 mmHg 94%
    09:00 +15°C° 0.4 mm 2 mps 736 mmHg 95%
    10:00 +15°C° 0.4 mm 2 mps 736 mmHg 95%
    11:00 +14°C° 0.4 mm 3 mps 736 mmHg 96%
    12:00 +14°C° 0.3 mm 3 mps 736 mmHg 95%
    13:00 +14°C° 0.3 mm 3 mps 736 mmHg 95%
    14:00 +14°C° 0.3 mm 3 mps 736 mmHg 95%
    15:00 +16°C° 0.2 mm 3 mps 736 mmHg 94%
    16:00 +16°C° 0.2 mm 3 mps 736 mmHg 93%
    17:00 +16°C° 0.2 mm 2 mps 736 mmHg 92%
    18:00 +16°C° 0.3 mm 2 mps 736 mmHg 94%
    19:00 +15°C° 0.3 mm 2 mps 736 mmHg 96%
    20:00 +14°C° 0.3 mm 2 mps 736 mmHg 98%
    21:00 +14°C° 0.4 mm 2 mps 736 mmHg 98%
    22:00 +13°C° 0.4 mm 3 mps 736 mmHg 97%
    23:00 +13°C° 0.4 mm 3 mps 737 mmHg 97%

    Pasado mañana, 19 Julio, Viernes

    Tiempo Temperatura Precipitaciones Viento Presión Humedad
    00:00 +13°C° 0.9 mm 3 mps 737 mmHg 97%
    01:00 +14°C° 0.9 mm 4 mps 737 mmHg 97%
    02:00 +14°C° 0.9 mm 4 mps 737 mmHg 97%
    03:00 +14°C° 0.4 mm 5 mps 737 mmHg 97%
    04:00 +14°C° 0.4 mm 5 mps 737 mmHg 97%
    05:00 +14°C° 0.4 mm 5 mps 737 mmHg 97%
    06:00 +14°C° 0.1 mm 5 mps 737 mmHg 96%
    07:00 +14°C° 0.1 mm 6 mps 738 mmHg 95%
    08:00 +14°C° 0.1 mm 6 mps 738 mmHg 95%
    09:00 +14°C° 0.1 mm 6 mps 738 mmHg 93%
    10:00 +15°C° 0.1 mm 5 mps 739 mmHg 92%
    11:00 +15°C° 0.1 mm 5 mps 739 mmHg 91%
    12:00 +16°C° 0.5 mm 6 mps 739 mmHg 89%
    13:00 +16°C° 0.5 mm 6 mps 740 mmHg 88%
    14:00 +17°C° 0.5 mm 6 mps 740 mmHg 86%
    15:00 +16°C° 0.2 mm 6 mps 740 mmHg 87%
    16:00 +16°C° 0.2 mm 5 mps 740 mmHg 87%
    17:00 +15°C° 0.2 mm 5 mps 741 mmHg 88%
    18:00 +15°C° 0 mm 4 mps 741 mmHg 89%
    19:00 +16°C° 0 mm 3 mps 741 mmHg 89%
    20:00 +16°C° 0 mm 3 mps 741 mmHg 90%
    21:00 +14°C° 0 mm 3 mps 742 mmHg 90%
    22:00 +14°C° 0 mm 3 mps 742 mmHg 91%
    23:00 +14°C° 0 mm 3 mps 742 mmHg 91%

    20 Julio, Sábado

    Tiempo Temperatura Precipitaciones Viento Presión Humedad
    00:00 +13°C° 0 mm 3 mps 742 mmHg 93%
    01:00 +13°C° 0 mm 3 mps 742 mmHg 94%
    02:00 +12°C° 0 mm 3 mps 743 mmHg 96%
    03:00 +12°C° 0 mm 3 mps 743 mmHg 95%
    04:00 +12°C° 0 mm 3 mps 743 mmHg 95%
    05:00 +12°C° 0 mm 3 mps 743 mmHg 95%
    06:00 +14°C° 0 mm 4 mps 743 mmHg 90%
    07:00 +15°C° 0 mm 4 mps 744 mmHg 84%
    08:00 +18°C° 0 mm 4 mps 744 mmHg 79%
    09:00 +17°C° 0.2 mm 5 mps 744 mmHg 78%
    10:00 +19°C° 0.2 mm 5 mps 745 mmHg 77%
    11:00 +20°C° 0.2 mm 5 mps 745 mmHg 75%
    12:00 +20°C° 0.6 mm 5 mps 745 mmHg 77%
    13:00 +20°C° 0.6 mm 5 mps 745 mmHg 79%
    14:00 +20°C° 0.6 mm 4 mps 745 mmHg 81%
    15:00 +20°C° 0.5 mm 4 mps 745 mmHg 81%
    16:00 +20°C° 0.5 mm 4 mps 746 mmHg 80%
    17:00 +20°C° 0.5 mm 4 mps 746 mmHg 80%
    18:00 +19°C° 0.1 mm 3 mps 746 mmHg 84%
    19:00 +18°C° 0.1 mm 2 mps 746 mmHg 88%
    20:00 +17°C° 0.1 mm 2 mps 746 mmHg 92%
    21:00 +16°C° 0 mm 2 mps 746 mmHg 93%
    22:00 +15°C° 0 mm 2 mps 747 mmHg 94%
    23:00 +14°C° 0 mm 2 mps 747 mmHg 94%

    21 Julio, Domingo

    Tiempo Temperatura Precipitaciones Viento Presión Humedad
    00:00 +14°C° 0 mm 2 mps 747 mmHg 95%
    01:00 +14°C° 0 mm 2 mps 747 mmHg 96%
    02:00 +13°C° 0 mm 2 mps 747 mmHg 96%
    03:00 +13°C° 0 mm 2 mps 747 mmHg 96%
    04:00 +13°C° 0 mm 2 mps 747 mmHg 97%
    05:00 +13°C° 0 mm 2 mps 747 mmHg 97%
    06:00 +15°C° 0 mm 2 mps 748 mmHg 92%
    07:00 +16°C° 0 mm 2 mps 748 mmHg 87%
    08:00 +18°C° 0 mm 2 mps 748 mmHg 82%
    09:00 +19°C° 0 mm 2 mps 748 mmHg 76%
    10:00 +20°C° 0 mm 2 mps 748 mmHg 70%
    11:00 +21°C° 0 mm 2 mps 748 mmHg 64%
    12:00 +22°C° 0 mm 3 mps 748 mmHg 64%
    13:00 +22°C° 0 mm 3 mps 748 mmHg 65%
    14:00 +22°C° 0 mm 4 mps 748 mmHg 65%
    15:00 +22°C° 0.1 mm 3 mps 748 mmHg 66%
    16:00 +22°C° 0.1 mm 3 mps 747 mmHg 68%
    17:00 +22°C° 0.1 mm 3 mps 747 mmHg 69%
    18:00 +20°C° 0 mm 2 mps 747 mmHg 75%
    19:00 +19°C° 0 mm 2 mps 747 mmHg 82%
    20:00 +18°C° 0 mm 1 mps 747 mmHg 88%
    21:00 +16°C° 0 mm 1 mps 747 mmHg 89%
    22:00 +15°C° 0 mm 1 mps 748 mmHg 90%
    23:00 +15°C° 0 mm 1 mps 748 mmHg 91%

    22 Julio, Lunes

    Tiempo Temperatura Precipitaciones Viento Presión Humedad
    00:00 +14°C° 0 mm 1 mps 748 mmHg 91%
    01:00 +14°C° 0 mm 1 mps 747 mmHg 92%
    02:00 +13°C° 0 mm 1 mps 747 mmHg 93%
    03:00 +13°C° 0 mm 1 mps 747 mmHg 93%
    04:00 +13°C° 0 mm 1 mps 747 mmHg 94%
    05:00 +13°C° 0 mm 1 mps 747 mmHg 94%
    06:00 +15°C° 0 mm 1 mps 748 mmHg 88%
    07:00 +18°C° 0 mm 1 mps 748 mmHg 81%
    08:00 +20°C° 0 mm 1 mps 748 mmHg 75%
    09:00 +21°C° 0 mm 1 mps 748 mmHg 69%
    10:00 +23°C° 0 mm 1 mps 748 mmHg 62%
    11:00 +24°C° 0 mm 1 mps 748 mmHg 55%
    12:00 +25°C° 0 mm 1 mps 748 mmHg 52%
    13:00 +25°C° 0 mm 2 mps 747 mmHg 49%
    14:00 +25°C° 0 mm 2 mps 747 mmHg 47%
    15:00 +25°C° 0 mm 2 mps 747 mmHg 51%
    16:00 +25°C° 0 mm 2 mps 747 mmHg 55%
    17:00 +25°C° 0 mm 2 mps 747 mmHg 59%
    18:00 +23°C° 0 mm 2 mps 747 mmHg 64%
    19:00 +20°C° 0 mm 2 mps 747 mmHg 69%
    20:00 +17°C° 0 mm 2 mps 747 mmHg 74%
    21:00 +17°C° 0 mm 2 mps 747 mmHg 77%
    22:00 +16°C° 0 mm 2 mps 747 mmHg 79%
    23:00 +15°C° 0 mm 2 mps 747 mmHg 81%
    Mostrar más